www.pogodaiklimat.ru

Погода и климат >> Архив погоды >> Австралия >> Западная Австралия >> Кунунарра


ПОГОДА в Кунунарре

  • Прогноз погоды в Кунунарре
  • Монитор погоды в Кунунарре

АРХИВ ПОГОДЫ в Кунунарре

Время (UTC), дата Ветер
(напр.,м/с)
 
Видим.   Явления Облачность Т
(С)
Тd
(С)
f
(%)
Тe
(С)
Тes
(С)
Комфортность P
(гПа)
Po
(гПа)
Тmin
(С)
Tmax
(С)
R
(мм)
R24
(мм)
S
(см)
22 13.01 СЗ 3 н/о 9/0
[]
+25.1 +22.8 87 +33 +34 очень
душно
1006.1 1001.1
00 14.01 В 2 н/о н/о +28.3 +22.5 71 +37 +37 очень
душно
1006.7 1001.7
01 14.01 В 3 н/о 8/8 600 м
[]
+29.5 +21.2 61 +37 +40 очень
душно
1007.0 1002.0 +24.9
03 14.01 В 3 н/о н/о +31.7 +23.5 62 +43 +43 опасность
перегрева
1006.4 1001.4
04 14.01 С 3 н/о н/о +32.1 +23.1 59 +42 +42 опасность
перегрева
1005.5 1000.5
06 14.01 СВ 3 н/о н/о +33.8 +23.5 55 +45 +45 опасность
перегрева
1004.1 999.1
07 14.01 С 4 н/о 6/6 1500 м
[]
+33.7 +23.1 54 +44 +47 опасность
перегрева
1003.1 998.2
09 14.01 С 3 н/о н/о +32.9 +23.2 57 +43 +43 опасность
перегрева
1004.5 999.5
10 14.01 С 7 н/о 3/3 1500 м
[]
+28.2 +22.7 72 +37 +37 очень
душно
1005.9 1000.9
12 14.01 С 1 н/о н/о +26.8 +23.1 80 +36 +36 очень
душно
1007.7 1002.7
13 14.01 З 2 н/о н/о +26.3 +23.8 86 +36 +36 очень
душно
1008.4 1003.4 +34.6
15 14.01 СВ 2 н/о н/о +25.9 +24.1 90 +36 +36 очень
душно
1007.9 1002.9
16 14.01 С 3 н/о 5/5 300 м
[]
+25.9 +24.1 90 +36 +36 очень
душно
1007.7 1002.7
18 14.01 З 1 н/о н/о +25.2 +23.8 92 +34 +34 очень
душно
1006.3 1001.3
19 14.01 З 2 н/о н/о +25.1 +23.7 92 +34 +34 очень
душно
1005.9 1000.9
21 14.01 штиль 0 н/о н/о +24.6 +23.6 94 +33 +33 очень
душно
1006.7 1001.7
22 14.01 штиль 0 н/о н/о +25.6 +24.2 92 +35 +35 очень
душно
1007.6 1002.6
00 15.01 СВ 2 н/о н/о +29.4 +23.8 72 +40 +40 очень
душно
1008.2 1003.2
01 15.01 ЮВ 2 н/о 1/1 600 м
[]
+31.1 +24.2 67 +43 +57 опасность
перегрева
1008.2 1003.2 +24.6
03 15.01 С 2 н/о н/о +32.7 +22.5 55 +42 +42 опасность
перегрева
1006.9 1001.9
04 15.01 С 4 н/о 3/3 1000 м
[]
+33.4 +23.1 55 +44 +55 опасность
перегрева
1006.1 1001.1
06 15.01 СЗ 3 н/о н/о +34.8 +22.5 49 +44 +44 опасность
перегрева
1004.8 999.8
07 15.01 СВ 3 н/о 4/4 1500 м
[]
+34.9 +22.6 49 +44 +49 опасность
перегрева
1004.1 999.1
09 15.01 С 4 н/о н/о +34.3 +23.3 53 +45 +45 опасность
перегрева
1004.2 999.2
10 15.01 СЗ 4 н/о н/о +32.3 +24.3 63 +45 +45 опасность
перегрева
1005.2 1000.2
12 15.01 С 3 н/о н/о +30.5 +24.6 71 +43 +43 опасность
перегрева
1006.9 1001.9
13 15.01 С 3 н/о 9/0
[]
+29.7 +25.0 76 +43 +43 опасность
перегрева
1007.2 1002.2 +36.2
15 15.01 С 3 н/о н/о +28.4 +25.0 82 +41 +41 опасность
перегрева
1007.1 1002.1
16 15.01 СВ 2 9000 м 9/0
[]
+27.7 +25.3 87 +40 +40 очень
душно
1007.0 1002.0
18 15.01 С 2 н/о н/о +26.7 +25.1 91 +38 +38 очень
душно
1006.6 1001.6
19 15.01 С 2 н/о н/о +26.4 +25.2 93 +38 +38 очень
душно
1006.4 1001.4
21 15.01 СВ 2 н/о н/о +26.2 +25.0 93 +37 +37 очень
душно
1007.4 1002.4
22 15.01 С 2 н/о н/о +27.3 +25.1 88 +39 +39 очень
душно
1008.0 1003.0
00 16.01 С 3 н/о н/о +30.5 +24.6 71 +43 +43 опасность
перегрева
1008.4 1003.4
01 16.01 С 3 н/о н/о +31.7 +23.5 62 +43 +43 опасность
перегрева
1008.3 1003.3 +26.1
03 16.01 СЗ 3 н/о н/о +34.3 +23.9 55 +46 +46 опасность
перегрева
1007.1 1002.1
04 16.01 З 3 н/о 1/1 1000 м
[]
+35.7 +23.7 50 +47 +64 опасность
перегрева
1006.3 1001.3
06 16.01 ЮЗ 2 н/о н/о +36.4 +21.0 41 +43 +43 опасность
перегрева
1004.2 999.2
07 16.01 СЗ 4 н/о н/о +36.5 +23.7 48 +47 +47 опасность
перегрева
1003.0 998.1
09 16.01 С 8 н/о н/о +28.7 +22.0 67 +37 +37 очень
душно
1004.3 999.3
10 16.01 СЗ 4 н/о 9/0
[]
+27.9 +21.0 66 +35 +35 очень
душно
1004.8 999.8
12 16.01 СВ 3 н/о н/о +27.0 +22.8 78 +36 +36 очень
душно
1007.0 1002.0
13 16.01 СЗ 3 9000 м 10/0
[]
+26.8 +23.5 82 +36 +36 очень
душно
1007.7 1002.7 +38.2
15 16.01 СЗ 3 н/о н/о +26.3 +24.2 88 +37 +37 очень
душно
1007.5 1002.5
16 16.01 С 2 9000 м н/о +26.3 +23.6 85 +36 +36 очень
душно
1006.0 1001.0
18 16.01 штиль 0 н/о н/о +26.2 +23.9 87 +36 +36 очень
душно
1005.5 1000.5
19 16.01 В 1 6000 м н/о +26.1 +24.0 88 +36 +36 очень
душно
1006.3 1001.3
21 16.01 СЗ 4 н/о н/о +23.3 +21.2 88 +31 +31 очень
душно
1008.9 1003.9
22 16.01 З 3 9000 м {туман} 9/0
[]
+23.3 +21.6 90 +31 +32 очень
душно
1008.8 1003.8
00 17.01 ЮЗ 3 н/о н/о +25.7 +22.2 81 +33 +33 очень
душно
1008.6 1003.6
01 17.01 Ю 3 н/о {туман} 9/0
[]
+29.2 +20.4 59 +36 +43 очень
душно
1008.5 1003.5 +23.1
03 17.01 Ю 3 н/о н/о +32.1 +22.5 57 +42 +42 опасность
перегрева
1006.8 1001.8
04 17.01 С 2 н/о {туман} н/о +33.4 +20.9 48 +41 +41 опасность
перегрева
1005.8 1000.8
06 17.01 СВ 2 н/о н/о +34.3 +21.4 47 +42 +42 опасность
перегрева
1003.5 998.6
07 17.01 С 3 н/о {туман} н/о +34.6 +20.2 43 +41 +41 опасность
перегрева
1002.4 997.5
09 17.01 С 3 н/о н/о +34.3 +20.7 45 +41 +41 опасность
перегрева
1002.8 997.9
10 17.01 С 2 н/о 5/0
[]
+31.8 +23.1 60 +42 +42 опасность
перегрева
1004.0 999.0
12 17.01 СВ 2 н/о н/о +29.5 +24.8 76 +42 +42 опасность
перегрева
1006.3 1001.3
13 17.01 С 3 н/о 5/0
[]
+29.3 +24.8 77 +42 +42 опасность
перегрева
1006.6 1001.6 +36.1
15 17.01 штиль 0 н/о н/о +28.6 +26.0 86 +43 +43 опасность
перегрева
1006.5 1001.5
16 17.01 С 4 6000 м 9/0
[]
+27.9 +26.1 90 +42 +42 опасность
перегрева
1005.7 1000.7
18 17.01 С 3 н/о н/о +27.4 +26.0 92 +41 +41 опасность
перегрева
1005.3 1000.3
19 17.01 СВ 4 н/о н/о +27.7 +26.3 92 +42 +42 опасность
перегрева
1005.6 1000.6
21 17.01 В 6 н/о н/о +28.0 +24.6 82 +40 +40 очень
душно
1006.8 1001.8
22 17.01 СВ 3 9000 м 10/10 600 м
[]
+26.9 +22.5 77 +35 +35 очень
душно
1007.3 1002.3
00 18.01 С 3 н/о н/о +28.2 +23.3 75 +38 +38 очень
душно
1007.1 1002.1
01 18.01 Ю 3 н/о 9/0
[]
+29.3 +23.0 69 +39 +46 очень
душно
1007.3 1002.3 +25.7
03 18.01 ЮЗ 4 н/о н/о +31.5 +23.6 63 +43 +43 опасность
перегрева
1006.9 1001.9
04 18.01 Ю 2 н/о н/о +33.5 +24.4 59 +46 +46 опасность
перегрева
1006.2 1001.2
06 18.01 ЮВ 5 н/о н/о +34.3 +23.3 53 +45 +45 опасность
перегрева
1004.4 999.4
07 18.01 ЮВ 5 н/о н/о +34.7 +21.7 47 +43 +43 опасность
перегрева
1003.6 998.7
09 18.01 С 6 н/о н/о +28.8 +23.0 71 +39 +39 очень
душно
1004.2 999.2
10 18.01 С 4 н/о 10/0
[]
+28.0 +22.9 74 +37 +37 очень
душно
1005.0 1000.0
12 18.01 СЗ 1 н/о н/о +27.4 +24.1 82 +38 +38 очень
душно
1007.1 1002.1
13 18.01 СВ 3 н/о 10/0
[]
+27.1 +24.0 83 +37 +37 очень
душно
1007.6 1002.6 +35.4
15 18.01 СВ 3 н/о н/о +26.7 +23.8 84 +37 +37 очень
душно
1007.3 1002.3
16 18.01 СВ 1 н/о 10/0
[]
+27.5 +23.5 79 +37 +37 очень
душно
1007.1 1002.1
18 18.01 СВ 4 н/о н/о +25.1 +21.4 80 +32 +32 очень
душно
1008.3 1003.3
19 18.01 СВ 2 н/о 10/0
[]
+24.5 +21.8 85 +31 +31 очень
душно
1007.5 1002.5
21 18.01 С 1 н/о н/о +24.3 +22.6 90 +32 +32 очень
душно
1007.4 1002.4
22 18.01 СВ 3 н/о 9/0
[]
+25.2 +23.3 89 +34 +34 очень
душно
1007.9 1002.9
00 19.01 В 2 н/о н/о +29.9 +22.3 64 +39 +39 очень
душно
1009.0 1004.0
01 19.01 ЮВ 3 8000 м 1/0
[]
+31.6 +20.2 51 +38 +51 опасность
солнечного
удара
1009.1 1004.1 +24.2
03 19.01 В 4 н/о н/о +34.2 +19.4 42 +40 +40 очень
душно
1008.2 1003.2
04 19.01 СВ 6 н/о н/о +34.5 +21.2 46 +42 +42 опасность
перегрева
1007.4 1002.4
06 19.01 С 3 н/о н/о +34.8 +21.8 47 +43 +43 опасность
перегрева
1005.8 1000.8
07 19.01 С 3 н/о н/о +35.3 +21.9 46 +44 +44 опасность
перегрева
1004.6 999.6
09 19.01 С 4 н/о н/о +35.0 +23.0 50 +45 +45 опасность
перегрева
1004.6 999.6
10 19.01 С 3 н/о н/о +33.4 +23.4 56 +44 +44 опасность
перегрева
1005.5 1000.5
12 19.01 С 3 н/о н/о +30.4 +23.8 68 +42 +42 опасность
перегрева
1007.5 1002.5
13 19.01 С 4 7000 м 6/0
[]
+30.1 +24.3 71 +42 +42 опасность
перегрева
1007.9 1002.9 +36.0
15 19.01 штиль 0 н/о н/о +29.2 +25.0 78 +42 +42 опасность
перегрева
1007.9 1002.9
16 19.01 штиль 0 н/о 1/0
[]
+28.3 +24.7 81 +40 +40 очень
душно
1007.1 1002.1
18 19.01 штиль 0 н/о н/о +27.2 +24.7 86 +39 +39 очень
душно
1006.1 1001.1
19 19.01 штиль 0 7000 м 10/0
[]
+26.6 +24.8 90 +38 +38 очень
душно
1005.8 1000.8
21 19.01 штиль 0 н/о н/о +27.1 +24.9 88 +39 +39 очень
душно
1007.0 1002.0
22 19.01 штиль 0 н/о 10/0
[]
+29.1 +25.1 79 +42 +43 опасность
перегрева
1007.5 1002.5
00 20.01 З 1 н/о н/о +32.1 +24.9 66 +46 +46 опасность
перегрева
1008.7 1003.7
01 20.01 Ю 2 н/о н/о +33.9 +24.2 57 +46 +46 опасность
перегрева
1008.4 1003.4 +26.7
03 20.01 В 4 н/о н/о +36.4 +22.9 46 +46 +46 опасность
перегрева
1006.8 1001.8
04 20.01 ЮВ 4 н/о 4/4 1500 м
[]
+37.0 +22.7 44 +46 +56 опасность
перегрева
1005.7 1000.7
06 20.01 ЮВ 5 н/о н/о +30.4 +23.3 66 +41 +41 опасность
перегрева
1004.7 999.7
07 20.01 ЮВ 4 н/о {туман} 5/0
[]
+30.1 +23.8 69 +41 +46 опасность
перегрева
1004.4 999.4
09 20.01 СЗ 2 н/о н/о +30.5 +25.8 76 +45 +45 опасность
перегрева
1004.0 999.0
10 20.01 ЮЗ 1 н/о 10/0
[]
+30.1 +23.0 66 +40 +40 очень
душно
1005.2 1000.2
12 20.01 штиль 0 н/о н/о +28.4 +24.6 80 +40 +40 очень
душно
1006.3 1001.3
13 20.01 штиль 0 н/о 5/0
[]
+28.4 +24.4 79 +40 +40 очень
душно
1006.5 1001.5 +38.3
15 20.01 штиль 0 н/о н/о +27.5 +25.3 88 +40 +40 очень
душно
1007.0 1002.0
16 20.01 Ю 2 н/о 5/0
[]
+28.5 +24.7 80 +41 +41 опасность
перегрева
1006.1 1001.1
18 20.01 З 3 н/о н/о +23.4 +22.7 96 +33 +33 очень
душно
1007.8 1002.8
19 20.01 ЮЗ 2 н/о туман местами 10/0
[]
+23.7 +23.0 96 +31 +31 очень
душно
1007.1 1002.1
21 20.01 СЗ 1 н/о н/о +24.0 +23.1 95 +32 +32 очень
душно
1006.2 1001.2
22 20.01 З 2 н/о {туман} 10/0
[]
+24.4 +23.7 96 +33 +34 очень
душно
1007.5 1002.5

 

Местоположение метеостанции Кунунарра (Западная Австралия, Австралия): широта -15.78 долгота 128.71 высота над уровнем моря 44 м.

В архиве по умолчанию представлена погода в Кунунарре за последнюю неделю. Архивные данные за месяц целиком и за предыдущие месяцы, начиная с января 2011 года, Вы можете получить, выбрав интересующий диапазон дат из раскрывающегося списка и нажав кнопку "Ввод!".


*Определитесь, кто Вы:
робот инопланетянин человек

Внимание! Время в таблицах - всемирное. Для получения местного времени необходимо прибавить поправку, которая равна 8 ч.

Смотрите также архив погоды в соседних городах и на ближайших метеорологических станциях:

Погода в Уиндеме (Западная Австралия, Австралия) (68 км)
Погода в Аэропорту Аргайл (Западная Австралия, Австралия) (99 км)
Погода в Порт Китс (Северная территория, Австралия) (192 км)
Погода в Манбуллу Ксиро (Северная территория, Австралия) (242 км)
Погода в Виктория-Ривер (Северная территория, Австралия) (256 км)
Погода в Калумбуру (Западная Австралия, Австралия) (276 км)
Погода в Холс Крик (Западная Австралия, Австралия) (294 км)
Погода в Трускотте (Западная Австралия, Австралия) (314 км)
Погода на Маяке Кейп-Дон (Северная территория, Австралия) (343 км)
Погода на Базе ВВС Delamere Weapons Range (Северная территория, Австралия) (344 км)

Пояснения к столбцам:

Ветер - указаны скорость ветра в м/с - средняя за 10 мин, порывы в срок и между сроками (в фигурных скобках) и направление, откуда дует ветер: С - северный, СВ - северо-восточный, В - восточный, ЮВ - юго-восточный, Ю - южный, ЮЗ - юго-западный, З - западный, СЗ - северо-западный.
Видимость - горизонтальная дальность видимости в метрах или километрах. При видимости от 1 до 10 км при отсутствии осадков обычно наблюдается дымка, при ухудшении видимости до 1 км и менее - туман. В сухую погоду видимость может ухудшаться дымом, пылью или мглою.
Явления - указаны атмосферные явления, наблюдавшиеся в срок или в последний час перед сроком; фигурными скобками обозначены явления, наблюдавшиеся между сроками (за 1-3 часа до срока); квадратными скобками обозначены град или гололедные отложения с указанием их диаметра в мм.
Облачность - указаны через наклонную черту общая и нижняя облачность в баллах и высота нижней границы облаков в метрах; квадратными скобками обозначены формы облаков: Ci - перистые, Cs - перисто-слоистые, Cc - перисто-кучевые, Ac - высококучевые, As - высокослоистые, Sc - слоисто-кучевые, Ns - слоисто-дождевые, Cu - кучевые, Cb - кучево-дождевые. Подробнее классификацию облаков см. в Атласе облаков (PDF).
T - Температура воздуха - температура, измеренная на высоте 2 м над землей.
Td - Температура точки росы - температура, при понижении до которой содержащийся в воздухе водяной пар достигнет насыщения.
f - Относительная влажность воздуха - влажноcть воздуха, измеренная на высоте 2 м над землей.
Te - Эффективная температура - температура, которую ощущает одетый по сезону человек в тени. Характеристика душности погоды. При расчете учитывается влияние влажности воздуха и скорости ветра на теплоощущения человека.
Tes - Эффективная температура на солнце - температура, которую ощущает человек, с поправкой на солнечный нагрев. Характеристика знойности погоды. Зависит от высоты солнца над горизонтом, облачности и скорости ветра. Ночью, в пасмурную погоду, а также при ветре 12 м/с и более поправка равна нулю.
P - Атмосферное давление - приведенное к уровню моря атмосферное давление.
Po - Атмосферное давление - измеренное на уровне метеостанции атмосферное давление.
Tmin - Минимальная температура - минимум температуры воздуха на высоте 2 м над землей.
Tmax - Максимальная температура - максимум температуры воздуха на высоте 2 м над землей.
R - Количество осадков - Количество выпавших осадков за период времени, мм. При наведении курсора мыши на число - период времени, за который выпало указанное количество осадков.
R24 - Количество осадков - Количество выпавших осадков за 24 часа, мм.
S - Снежный покров - Высота снежного покрова, см. При наведении курсора мыши на число - состояние снежного покрова и степень покрытия местности в баллах.